Погода в Джерокае

Россия / Республика Адыгея     44°59′12″N   40°18′58″E
темп.,
°C
ветер,
м/с
пор.,
м/с
влажн.,
%
обл.,
%
осадки,
мм/ч
давл.,
гПа
погр.,
м
24 января, вс
вс2400:00+1ююв22730 0.0 102422
03:00+1юв23760 0.0 102322
06:000вюв34720 0.0 102235
09:00+1вюв34750 0.0 102174
12:00+3вюв34982 0.0 102071
15:00+4в349235 0.0 101855
18:00+2вюв3478100 0.0 101946
21:00+2юв2276100 0.0 101922
25 января, пн
пн2500:00+2ю1275100 0.0 101922
03:00+2ююз1170100 0.0 101922
06:00+2юв336582 0.0 101922
09:00+3вюв236768 0.0 102024
12:00+6вюв23820 0.0 101961
15:00+6вюв447316 0.0 101779
18:00+4вюв457097 0.0 101658
21:00+3вюв456999 0.0 101571
26 января, вт
вт2600:00+4ююв3373100 0.0 101527
03:00+3з1267100 0.0 101533
06:00+4ю4871100 0.0 1016151
09:00+5ю3578100 0.0 101878
12:00+7юв3673100 0.0 1018131
15:00+9вюв4673100 0.0 1017106
18:00+6вюв476999 0.0 1017103
21:00+5вюв577499 0.0 101697
27 января, ср
ср2700:00+5вюв457891 0.0 101577
03:00+5вюв557496 0.0 101480
06:00+5вюв4674100 0.0 101289
09:00+6вюв3573100 0.0 101077
12:00+10в4565100 0.0 1008174
15:00+11в3665100 0.0 1006211
18:00+7в2374100 0.0 100633
21:00+7вюв3375100 0.0 100537
28 января, чт
чт2800:00+8в4476100 0.0 100552
03:00+7всв3474100 0.0 100445
06:00+6всв1173100 0.0 100423
09:00+6в1175100 0.0 100522
12:00+7вюв1282100 0.4 100488
15:00+8з3486100 0.8 1004329
18:00+6зсз6993100 4.0 1006511
21:00+3зсз61094100 4.8 1009558